Volver al catálogo

STARLINK-34237

ActivoComunicacionesVLEO
NORAD 64194·PAYLOAD·🇺🇸 United States

Lanzado May 28, 2025 desde Cape Canaveral Space Force Station

Loading…

Próximos Pases (próximas 24 horas)

TLE

ActualizadoSource: CelesTrak SupGP

Época: Sep 14, 2026, 20:43 UTC

1 64194C 25113AA  26257.86368056  .00009727  00000+0  31289-3 0  2577
2 64194  53.1589 290.8447 0001196  74.2767 187.2092 15.31688685    12

Sigue STARLINK-34237 en tiempo real con AllMySat

Download on the App Store